Pedro Bay, AK

12:06 AM AKDT on August 24, 2016 (GMT -0800)
Iliamna

Weather History for PAIL - October, 2012

Change the Weather History Date:

Friday, October 12, 2012

  Actual Average Record
Temperature  
Mean Temperature 37 °F -  
Max Temperature 44 °F 42 °F 55 °F (1969)
Min Temperature 30 °F 32 °F 16 °F (1961)
Degree Days  
Heating Degree Days 28    
Moisture  
Dew Point 27 °F    
Average Humidity 69    
Maximum Humidity 85    
Minimum Humidity 43    
Precipitation  
Precipitation 0.00 in - - ()
Sea Level Pressure  
Sea Level Pressure 29.30 in    
Wind  
Wind Speed 12 mph (North)    
Max Wind Speed 16 mph    
Max Gust Speed 21 mph    
Visibility 10 miles    
Events      
Averages and records for this station are not official NWS values.
T = Trace of Precipitation, MM = Missing Value Source: NWS Daily Summary

Daily Weather History Graph

Daily Weather History Graph

Search for Another Location

Airport or City:

Trip Planner

Search our weather history database for the weather conditions in past years. The results will help you decide how hot, cold, wet, or windy it might be!

Date:

Astronomy

Oct. 12, 2012 Rise Set
Actual Time 8:52 AM AKDT 7:17 PM AKDT
Civil Twilight 8:11 AM AKDT 7:59 PM AKDT
Nautical Twilight 7:23 AM AKDT 8:46 PM AKDT
Astronomical Twilight 6:34 AM AKDT 9:35 PM AKDT
Moon 5:11 AM AKDT (10/12) 6:01 PM AKDT (10/12)
Length of Visible Light 11h 48m
Length of Day
10h 24m
Waning Crescent, 10% of the Moon is Illuminated
Oct 12
Waning Crescent
Oct 15
New
Oct 21
First Quarter
Oct 29
Full
Nov 6
Last Quarter

Hourly Weather History & Observations

Time (AKDT) Temp. Windchill Dew Point Humidity Pressure Visibility Wind Dir Wind Speed Gust Speed Precip Events Conditions
12:53 AM 36.0 °F 27.1 °F 30.0 °F 79% 29.52 in 10.0 mi North 13.8 mph - N/A   Clear
1:53 AM 35.1 °F 25.2 °F 28.9 °F 78% 29.49 in 10.0 mi North 16.1 mph - N/A   Clear
2:53 AM 34.0 °F 25.0 °F 28.9 °F 82% 29.47 in 10.0 mi NNE 12.7 mph - N/A   Clear
3:53 AM 34.0 °F 24.2 °F 28.9 °F 82% 29.44 in 10.0 mi North 15.0 mph 20.7 mph N/A   Clear
4:53 AM 34.0 °F 24.6 °F 28.0 °F 79% 29.42 in 10.0 mi North 13.8 mph - N/A   Clear
5:53 AM 33.1 °F 23.4 °F 28.0 °F 82% 29.40 in 10.0 mi North 13.8 mph - N/A   Clear
6:53 AM 32.0 °F 22.1 °F 27.0 °F 82% 29.39 in 10.0 mi North 13.8 mph - N/A   Clear
7:53 AM 30.9 °F 21.2 °F 26.1 °F 82% 29.37 in 10.0 mi North 12.7 mph - N/A   Clear
8:53 AM 30.0 °F 24.1 °F 26.1 °F 85% 29.35 in 10.0 mi NNE 5.8 mph - N/A   Clear
9:53 AM 30.9 °F 22.8 °F 27.0 °F 85% 29.34 in 10.0 mi North 9.2 mph - N/A   Clear
10:53 AM 34.0 °F 28.8 °F 27.0 °F 75% 29.32 in 10.0 mi North 5.8 mph - N/A   Clear
11:53 AM 36.0 °F 28.5 °F 28.0 °F 73% 29.30 in 10.0 mi North 10.4 mph - N/A   Clear
12:53 PM 39.0 °F 32.3 °F 28.0 °F 65% 29.28 in 10.0 mi North 10.4 mph - N/A   Clear
1:53 PM 41.0 °F 34.7 °F 28.0 °F 60% 29.25 in 10.0 mi North 10.4 mph - N/A   Clear
2:53 PM 43.0 °F 38.2 °F 28.9 °F 58% 29.22 in 10.0 mi North 8.1 mph - N/A   Clear
3:53 PM 44.1 °F 39.0 °F 28.9 °F 55% 29.20 in 10.0 mi NNW 9.2 mph - N/A   Clear
4:53 PM 44.1 °F 40.1 °F 27.0 °F 51% 29.18 in 10.0 mi North 6.9 mph - N/A   Clear
5:53 PM 42.1 °F 36.1 °F 26.1 °F 53% 29.16 in 10.0 mi North 10.4 mph - N/A   Clear
6:53 PM 39.0 °F 34.0 °F 25.0 °F 57% 29.15 in 10.0 mi NNW 6.9 mph - N/A   Clear
7:53 PM 34.0 °F 28.0 °F 24.1 °F 67% 29.14 in 10.0 mi NW 6.9 mph - N/A   Clear
10:53 PM 33.1 °F 24.4 °F 21.0 °F 61% 29.13 in 10.0 mi North 11.5 mph - N/A   Clear
11:53 PM 32.0 °F 23.0 °F 21.0 °F 64% 29.13 in 10.0 mi North 11.5 mph - N/A   Clear